Location: Santa Cruz del Retamar
(40.1175°N, 4.2409°W)
Time: 14:04:34
(UTC+00:00)

Daily predictions for brighter satellites

Satellite Brightness Start Highest point End
(mag) Time Altitude Azimuth Time Altitude Azimuth Time Altitude Azimuth
Meteor 2-5 Rocket 4.2 20:03:42 10° SSW 20:09:30 70° W 20:15:13 10° N
GP-B 3.1 20:09:50 10° N 20:14:13 86° E 20:18:36 10° S
ADEOS 3.6 20:09:10 10° SSE 20:14:21 85° ENE 20:19:36 10° NNW
Helios 1A 4.3 20:15:23 10° NE 20:18:14 19° E 20:21:05 10° SE
Cosmos 220 Rocket 4.0 20:16:14 10° NNW 20:20:30 82° WSW 20:24:43 10° SSE
CZ-4C R/B 2.7 20:22:46 10° SSE 20:25:53 22° ESE 20:29:28 10° ENE
CSL-04 Debris 4.4 20:20:46 10° S 20:26:07 76° WSW 20:31:30 10° NNW
CZ-2C R/B 3.4 20:24:27 10° S 20:27:33 45° W 20:30:39 10° NNW
Cosmos 1782 Rocket 4.2 20:24:31 10° NNW 20:28:52 59° W 20:33:08 10° S
Cosmos 1656 Rocket 3.8 20:24:25 10° SSW 20:29:59 79° WNW 20:35:31 10° NNE
Cosmos 2297 3.7 20:26:32 10° S 20:32:03 62° ESE 20:37:39 10° NNE
Cosmos 2242 Rocket 3.5 20:28:18 10° S 20:32:39 81° E 20:37:03 10° N
Feng Yun 1-1 Rocket 4.4 20:28:19 10° SSE 20:34:05 82° WSW 20:39:44 10° NNW
CSL-04 Rocket 4.2 20:30:39 10° S 20:35:58 61° WSW 20:41:24 10° NNW
Cosmos 1503 Rocket 4.0 20:33:34 10° S 20:38:39 64° ESE 20:43:45 10° NNE
Meteor 1-21 Rocket 4.5 20:34:12 10° SSE 20:39:36 48° E 20:44:56 10° NNE
Cosmos 2208 Rocket 4.0 20:34:55 10° NNW 20:40:13 81° ENE 20:45:33 10° SSE
Tiangong -1.6 20:39:32 10° SW 20:42:36 40° SSE 20:45:43 10° E
Cosmos 44 3.6 20:38:47 10° S 20:42:39 34° ESE 20:46:36 10° NE
Meteor PRIRODA 3.4 20:41:52 16° SE 20:43:52 44° ENE 20:46:35 10° N
COSMOS 2406 3.6 20:38:20 10° NNW 20:44:01 65° WSW 20:49:40 10° S
CZ-4B R/B 3.4 20:40:47 10° S 20:46:07 72° WSW 20:51:36 10° NNW
ISS -0.8 20:45:06 10° NNW 20:46:24 12° N 20:47:42 10° NNE
GRACE-FO 1 4.4 20:44:52 10° S 20:48:19 89° E 20:51:49 10° N
GRACE-FO 2 4.4 20:45:20 10° S 20:48:47 90° W 20:52:17 10° N
Cosmos 1354 Rocket 4.1 20:43:47 10° S 20:48:52 55° ESE 20:53:57 10° NNE
Cosmos 773 Rocket 4.0 20:44:39 10° NNW 20:49:57 81° ENE 20:54:42 13° SSE
Cosmos 1674 Rocket 3.8 20:46:31 10° SSE 20:50:46 49° E 20:55:03 10° NNE
MOS 1-B 4.3 20:45:51 10° SSE 20:51:36 82° ENE 20:57:24 10° NNW
In-Cosmos 22 Rocket 4.3 20:47:26 10° S 20:53:11 67° E 20:58:54 10° NNE
CZ-4 R/B 3.6 20:50:36 10° SW 20:53:27 21° W 20:56:21 10° NW
Cosmos 1634 Rocket 4.0 20:49:28 10° N 20:55:39 84° W 21:01:49 10° S
USA 186 3.7 20:53:40 10° SSW 20:55:53 22° W 20:58:06 10° NW
Cosmos 2082 Rocket 3.9 20:51:51 10° NW 20:56:42 29° WSW 21:01:31 10° SSW
Ariane Rocket 4.3 20:54:15 15° ESE 20:57:15 25° ENE 21:01:19 10° NNE
CZ-4B R/B 3.7 20:52:43 10° S 20:57:57 77° WSW 21:03:07 10° NNW
DELTA 2 R/B (1) 3.6 20:56:22 10° WSW 21:01:48 61° SSE 21:07:16 10° E
Terra 1.7 20:58:30 14° SSE 21:02:28 77° ENE 21:07:12 10° N
NOSS 5 (C) 4.3 21:00:19 10° NW 21:03:32 75° WSW 21:05:26 24° SSE
Cosmos 2369 Rocket 2.5 20:59:38 10° SSW 21:05:19 74° WNW 21:11:01 10° NNE
Cosmos 1378 Rocket 3.6 21:01:45 10° S 21:06:03 79° W 21:10:20 10° N
Cosmos 1777 Rocket 4.4 21:01:49 10° SSW 21:06:59 65° WNW 21:12:10 10° NNE
Cosmos 1025 Rocket 3.3 21:04:57 18° SSE 21:07:50 46° E 21:12:00 10° NNE
Okean-O 2.6 21:06:40 16° SSE 21:10:07 88° WSW 21:14:32 10° NNW
Cosmos 2279 Rocket 4.0 21:04:43 10° N 21:10:59 87° E 21:16:38 13° S
Meteor 2-12 Rocket 4.5 21:05:21 10° S 21:11:23 63° E 21:17:26 10° NNE
USA 245 3.5 21:09:58 23° SE 21:12:20 53° ENE 21:15:45 10° N
Cosmos 1869 2.9 21:09:54 10° N 21:13:28 80° E 21:15:22 25° SSE
Okean O Rocket 2.1 21:11:29 12° S 21:15:25 56° W 21:19:44 10° NNW
TSX-5 3.4 21:13:00 10° NNW 21:16:11 73° WSW 21:17:51 28° SSE
CZ-4B R/B 3.9 21:13:44 10° SSW 21:16:59 37° W 21:20:27 10° NNW
Cosmos 1340 Rocket 3.6 21:13:30 10° NNW 21:17:12 47° W 21:20:20 13° SSW
Helios 1B rocket 3.4 21:26:16 15° SSW 21:28:58 37° W 21:32:24 10° NNW
Spot 2 Rocket 3.5 21:28:30 23° SSE 21:31:43 86° WSW 21:36:50 10° NNW
NOSS 3-4 (A) 4.0 21:24:44 10° NW 21:31:50 86° WSW 21:37:06 25° SSE
NOSS 3-4 (C) 3.9 21:24:47 10° NW 21:31:53 87° SW 21:37:05 25° SSE
Cosmos 1867 3.8 21:29:13 15° S 21:33:30 48° ESE 21:38:44 10° NE
SPOT 3 Rocket 3.6 21:32:07 29° SE 21:34:41 62° ENE 21:39:50 10° N
Cosmos 1812 2.8 21:32:17 10° N 21:35:17 40° E 21:35:17 40° E
Cosmos 1900 4.2 21:33:22 10° SSW 21:38:19 76° ESE 21:43:24 10° NNE
Cosmos 1898 Rocket 4.0 21:38:07 33° SE 21:39:33 40° ESE 21:44:24 10° NE
ERS-1 Rocket 4.1 21:35:49 12° SSW 21:40:05 39° W 21:44:45 10° NNW
IRS-1C Rocket 4.1 21:47:01 31° S 21:49:38 82° WSW 21:54:55 10° NNW
Cosmos 1818 3.5 21:44:24 10° NW 21:49:52 79° WSW 21:52:03 37° SSE
Cosmos 1538 Rocket 4.4 21:44:42 10° N 21:49:56 51° ENE 21:51:46 36° ESE
Okean 2 Rocket 4.1 21:55:33 10° NNW 21:59:39 40° W 22:01:49 23° SSW
Cosmos 2098 Rocket 4.2 21:59:56 10° NNE 22:02:14 24° ENE 22:02:14 24° ENE
Cosmos 2228 4.0 22:04:30 10° NNE 22:08:13 31° ENE 22:08:13 31° ENE
Cosmos 1975 Rocket 2.9 22:08:21 63° SE 22:08:42 67° E 22:12:59 10° NNE
Cosmos 1627 Rocket 4.4 22:07:44 37° S 22:10:20 76° E 22:16:28 10° N
Okean 1 Rocket 4.1 22:06:40 10° NNW 22:10:44 40° W 22:12:22 28° SW
Cosmos 1833 4.5 22:06:38 10° NNW 22:12:13 61° WSW 22:14:12 38° S
CZ-4C R/B 3.3 22:09:46 10° WSW 22:13:41 36° NW 22:18:30 10° NNE
Cosmos 372 Rocket 3.8 22:11:45 35° SSW 22:13:55 87° WNW 22:19:01 10° NNE
Aureole 1 Rocket 4.2 22:10:31 19° SSW 22:15:18 82° WNW 22:22:45 10° NNE
Tiangong -0.6 22:16:23 10° W 22:18:21 33° W 22:18:21 33° W
Cosmos 1455 Rocket 3.1 22:17:00 10° NNW 22:21:18 71° W 22:21:51 62° SW
ISS -1.8 22:21:21 10° NNW 22:24:05 23° NNE 22:24:31 22° NE
Cosmos 1656 3.7 22:26:03 54° SE 22:26:31 56° ESE 22:31:56 10° NNE
COBE Rocket 4.2 22:24:36 10° N 22:29:09 56° WNW 22:30:41 37° SW
Cosmos 1937 Rocket 3.4 22:34:44 56° SSW 22:35:49 85° WNW 22:40:58 10° NNE
Ariane Rocket 4.0 22:34:21 30° SW 22:35:55 38° W 22:40:36 10° NNW
Cosmos 2026 Rocket 4.2 22:35:12 32° SSW 22:38:01 62° W 22:44:02 10° N
DELTA 2 DEB (DPAF) 4.4 22:37:17 10° NNE 22:40:19 51° NNE 22:40:19 51° NNE
RESURS DK-1 3.6 22:39:18 10° N 22:42:29 32° NE 22:42:29 32° NE
Cosmos 1400 Rocket 4.1 22:41:03 10° N 22:43:33 31° NE 22:43:33 31° NE
Cosmos 1680 Rocket 3.9 22:40:11 10° N 22:45:19 49° ENE 22:45:47 48° E
DELTA 2 R/B (1) 3.4 22:42:32 10° W 22:48:06 86° S 22:49:04 62° E
SL-08 ROCKET BODY 4.4 22:47:35 55° ESE 22:48:07 57° E 22:53:53 10° NNE
Cosmos 858 Rocket 4.3 22:49:23 73° SSW 22:49:55 87° WNW 22:55:07 10° NNE
ARIANE 5 R/B 3.6 22:51:38 37° ENE 22:51:38 37° ENE 22:55:23 10° N
CZ-2C R/B 4.2 22:50:12 10° NNE 22:54:09 52° ENE 22:54:09 52° ENE
Lacrosse 5 rocket 4.3 22:55:13 10° N 22:56:05 11° NNE 22:56:56 10° NNE
Cosmos 923 Rocket 3.8 22:51:52 10° NNW 22:57:04 87° ENE 22:57:15 84° SE
Cosmos 1553 Rocket 3.9 22:53:18 10° N 22:59:38 84° E 23:00:44 63° SSE
Cosmos 1536 Rocket 4.2 23:03:26 49° NE 23:03:26 49° NE 23:06:49 10° NNE
Cosmos 2297 Rocket 2.6 22:59:48 10° NNW 23:05:17 49° ENE 23:05:55 47° E
Cosmos 1980 Rocket 4.0 23:12:31 17° ENE 23:12:31 17° ENE 23:14:47 10° NE
Cosmos 1544 Rocket 4.0 23:07:41 10° NNW 23:11:24 57° NW 23:11:24 57° NW
Cosmos 494 Rocket 4.4 23:08:15 10° N 23:13:20 51° ENE 23:13:20 51° ENE
Cosmos 1697 Rocket 3.2 23:15:35 46° E 23:15:35 46° E 23:20:14 10° NE
SL-24 R/B 4.5 23:09:58 10° NNE 23:15:49 90° ENE 23:15:53 88° S
Cosmos 1417 Rocket 4.4 23:12:57 10° N 23:19:03 68° E 23:19:33 65° ESE
Cosmos 2360 4.2 23:20:30 68° WSW 23:21:07 76° WNW 23:26:51 10° NNE
S3M 4.1 23:14:56 10° N 23:21:09 60° E 23:21:42 58° ESE
Meteor 2-20 Rocket 4.2 23:15:34 10° N 23:21:32 81° W 23:21:56 76° SSW
GEOS 3 Rocket 4.4 23:22:18 10° NE 23:26:03 41° ENE 23:26:03 41° ENE
Meteor 2-3 Rocket 4.4 23:38:20 42° E 23:38:20 42° E 23:43:21 10° NNE
Cosmos 2227 Rocket 3.0 23:32:48 10° N 23:38:10 41° ENE 23:38:48 40° ENE
Cosmos 1655 Rocket 4.1 23:38:29 59° ESE 23:38:44 59° E 23:44:59 10° NNE
BlueWalker 3 4.0 23:37:17 10° NW 23:38:56 24° NNW 23:38:56 24° NNW
ALOS 2 3.4 23:42:55 50° N 23:42:55 50° N 23:46:15 10° N
Gbstr 26 Del rocket 3.9 23:38:50 10° NW 23:44:29 77° NE 23:45:18 67° E
PSLV R/B 4.4 23:43:00 10° NNE 23:46:32 50° NE 23:46:32 50° NE
